GFSCGP_850_temp_132.txt.gz
Temp
28 24 23 24 23 25 27 29 27 29 30 28 27 28 27 28 28 26 26 27 25 25 25 25 25 24 24 23 23 23 23 22 22 21 21 20 20 20 20 20 20 19 19 19
24 24 26 26 28 28 30 29 27 29 31 29 26 28 27 26 26 27 27 26 26 25 25 25 25 24 24 24 24 23 23 23 22 21 21 21 21 21 20 20 20 19 19 19
24 27 29 29 30 29 26 28 29 30 29 28 27 26 27 26 25 26 26 27 26 26 25 25 24 24 23 23 23 24 23 23 23 22 21 21 21 20 20 20 20 20 19 19
25 28 31 31 30 27 27 29 29 28 26 26 27 24 26 24 24 24 25 26 27 26 25 25 24 24 23 24 24 23 23 22 22 22 21 21 21 21 21 20 20 20 20 20
27 30 30 29 30 29 29 30 29 29 26 25 26 23 23 23 22 23 24 25 26 26 26 25 25 24 24 23 23 23 23 22 21 21 21 20 20 20 20 20 20 20 19 19
27 31 31 30 31 31 31 28 24 21 21 22 24 24 23 22 24 23 24 25 25 25 25 25 25 24 24 23 23 22 22 21 21 20 20 20 20 20 19 20 20 19 20 20
26 28 30 31 29 27 25 21 20 22 20 22 24 24 23 24 25 25 24 25 26 25 25 24 24 23 23 23 23 23 22 21 21 20 20 20 20 20 19 19 19 19 20 19
24 25 28 29 28 27 28 22 20 24 22 22 23 24 24 24 26 26 27 26 25 25 25 24 24 24 24 24 23 23 23 23 22 22 22 21 21 20 20 19 19 19 19 19
24 27 29 30 30 27 28 24 23 21 20 21 22 25 25 25 24 24 25 25 24 25 25 25 24 24 24 23 23 23 23 22 22 22 22 21 21 21 21 20 19 19 19 19
26 26 27 30 29 29 26 25 23 18 23 24 22 24 21 25 23 23 23 24 25 25 24 24 24 23 23 23 22 22 22 21 21 21 21 21 20 20 20 20 20 19 19 19
24 23 26 27 27 26 25 24 21 19 18 19 20 21 21 24 21 21 22 25 25 24 24 23 23 23 23 23 23 22 22 22 21 21 21 20 20 20 20 19 19 19 19 18
25 20 23 26 26 26 23 23 20 19 22 18 18 20 22 23 23 24 23 24 24 25 24 23 23 23 23 22 22 22 22 22 21 21 20 20 19 19 19 19 19 18 18 18
24 20 20 22 22 22 25 25 23 18 17 21 19 20 23 22 21 23 23 23 24 24 23 23 22 22 22 22 22 21 20 20 20 19 19 19 19 19 18 18 18 17 18 17
25 18 19 20 22 22 24 24 25 20 18 19 19 22 23 23 19 21 23 23 23 22 22 22 22 21 21 21 20 20 20 19 19 18 18 18 18 17 18 17 17 17 17 17
20 21 23 22 23 24 24 24 24 24 23 22 22 21 22 19 18 21 22 22 22 22 21 21 20 20 20 20 20 20 19 18 18 17 18 17 17 17 16 16 17 17 17 17
19 19 22 23 23 22 23 23 23 23 24 23 21 21 20 21 22 21 22 22 22 21 20 20 20 20 20 20 19 19 18 18 17 17 17 16 16 16 16 16 16 16 16 16
19 17 16 20 20 21 20 23 23 22 22 21 22 20 20 20 20 20 21 21 20 20 20 20 20 20 20 19 19 18 17 17 17 16 16 16 15 15 15 15 16 15 15 15
18 17 15 17 18 19 19 21 23 23 20 20 19 18 19 20 20 20 20 20 20 20 20 20 20 19 19 19 18 17 17 17 16 15 15 15 14 14 14 14 15 15 14 15
18 15 16 16 16 18 21 22 23 23 20 19 18 18 19 19 19 19 20 20 20 20 19 19 19 18 18 17 17 17 17 17 16 16 14 14 14 14 14 14 14 14 14 15
15 14 16 14 17 17 18 22 23 22 17 19 19 19 19 20 15 15 19 19 19 19 19 18 18 18 17 17 16 17 17 16 16 15 14 13 13 13 14 14 14 14 14 15
17 16 17 14 16 17 19 22 24 20 17 19 19 19 19 17 18 19 19 19 19 18 18 17 18 18 17 16 16 17 16 16 14 14 13 13 13 13 13 14 14 14 14 15
17 16 15 14 16 17 21 21 20 18 19 20 20 19 19 19 19 19 19 19 18 18 18 19 18 17 16 16 16 16 16 15 13 13 13 13 13 13 13 14 14 14 14 14
18 16 16 15 15 18 20 19 19 20 19 19 19 19 19 19 18 17 17 17 17 17 17 17 16 15 15 16 15 15 15 14 13 13 13 13 13 13 13 14 14 14 14 14
16 18 16 16 18 17 19 19 20 20 19 19 19 18 18 17 17 17 16 16 15 16 16 17 16 16 15 15 15 14 13 12 12 12 12 12 12 13 13 14 14 14 14 14
17 17 15 15 17 18 18 18 19 19 19 19 18 18 17 17 17 16 15 15 15 15 16 16 15 15 14 14 14 13 12 11 11 11 11 11 11 12 12 13 14 14 14 14
16 15 14 14 17 15 14 16 18 18 18 18 18 17 16 16 16 15 15 15 15 13 13 13 14 14 13 13 13 12 12 11 11 11 10 10 11 11 12 12 13 14 14 14

GFSCGP_850_temp_138.txt.gz
Temp
25 22 22 23 22 24 25 25 25 28 27 24 25 24 21 22 22 22 22 22 22 22 23 22 22 22 22 22 22 21 22 22 21 21 20 20 20 20 20 20 19 19 19 19
22 21 23 24 23 24 23 25 26 26 26 24 23 23 22 22 22 22 22 22 23 22 22 23 23 22 22 22 22 22 21 21 21 21 21 20 20 20 20 20 19 19 19 19
22 26 26 26 25 26 26 25 27 27 25 23 23 23 23 23 23 23 23 23 23 24 24 24 24 24 23 23 23 22 22 21 22 21 21 20 20 20 20 20 19 19 19 19
23 25 26 28 28 24 27 27 27 26 24 23 23 21 22 22 22 22 23 23 24 23 24 24 24 24 24 24 23 23 22 22 22 22 21 21 21 20 20 20 19 21 18 18
26 27 28 28 28 26 27 27 26 26 22 23 23 21 21 21 22 20 21 24 24 24 25 25 25 25 25 24 24 24 23 23 23 22 22 21 20 20 20 20 19 19 19 19
25 27 27 27 27 27 24 24 20 18 18 21 23 21 20 20 23 20 21 23 24 24 25 25 25 25 25 24 24 23 23 23 23 22 21 20 20 21 20 20 20 20 19 19
26 27 27 28 27 26 23 20 19 22 19 21 20 20 21 22 22 22 21 22 24 24 25 25 25 25 24 24 24 23 23 23 22 22 21 22 21 21 20 21 20 20 20 20
23 25 27 28 27 25 23 21 19 24 20 20 20 22 22 21 23 23 23 24 24 25 26 25 25 25 24 24 23 23 23 23 22 22 22 22 21 21 20 20 20 20 20 20
22 25 26 27 26 26 24 22 20 17 16 19 18 21 23 20 20 22 22 23 24 25 25 25 25 25 24 24 24 23 22 22 22 22 22 21 21 20 20 20 19 19 19 19
23 25 25 27 26 24 25 20 22 17 22 22 19 19 20 21 20 20 20 21 23 24 24 24 24 25 24 24 23 22 22 22 22 21 21 20 20 20 20 20 20 19 19 18
21 22 25 25 24 23 23 21 16 16 16 18 19 20 19 20 19 19 20 23 23 23 23 24 24 24 23 23 22 22 22 22 21 21 21 21 21 21 20 19 19 19 18 18
21 18 21 24 22 21 23 21 18 18 20 15 16 19 21 18 20 21 21 22 23 23 24 24 24 23 23 22 22 21 21 21 21 21 20 20 20 20 19 18 18 18 18 18
20 18 19 21 21 23 23 21 16 14 14 16 18 19 20 20 20 22 22 23 23 23 23 23 22 22 22 21 21 21 21 21 20 20 20 20 20 19 18 17 17 17 16 16
22 15 19 21 21 20 22 22 19 18 17 16 16 19 22 21 19 19 21 22 23 22 22 22 22 21 21 21 21 20 20 20 20 20 20 19 19 18 18 18 17 16 16 16
19 19 19 18 21 22 22 22 21 22 19 21 20 19 20 19 18 19 21 20 21 21 21 21 22 22 21 21 20 20 20 20 21 20 19 18 18 17 17 17 17 15 15 15
15 18 19 19 20 21 21 21 21 22 19 20 20 19 17 20 21 20 20 20 20 20 21 21 21 21 20 20 20 21 21 20 19 18 17 17 17 17 17 16 15 15 14 14
16 15 17 19 18 20 20 20 20 20 20 20 19 19 17 17 16 17 18 19 20 21 20 20 20 20 20 20 20 20 20 19 18 17 17 17 17 17 17 16 15 14 14 13
14 13 13 15 17 19 19 18 20 19 19 18 18 17 17 16 18 19 19 20 20 20 20 20 20 20 20 20 20 19 19 18 17 17 16 16 16 16 16 14 14 13 13 13
13 13 13 15 15 17 20 19 18 20 18 17 17 16 16 18 19 18 19 20 20 20 20 20 20 19 19 19 19 18 17 17 16 16 16 16 15 15 14 13 13 13 13 13
13 12 15 12 17 17 17 20 21 19 17 18 17 16 17 18 15 14 20 20 20 19 19 19 19 19 18 18 17 17 17 16 16 15 15 15 15 13 13 12 12 13 13 13
14 12 15 13 16 15 17 19 21 19 16 18 18 18 18 16 18 19 19 19 19 19 18 18 17 17 17 16 16 16 16 15 15 14 14 14 13 12 12 12 12 12 12 12
16 14 13 11 15 17 16 19 18 16 16 18 18 19 18 19 19 19 19 19 18 18 17 16 16 16 16 16 15 15 15 14 13 14 14 13 12 12 11 11 12 12 12 12
16 14 14 13 13 14 15 16 17 17 18 18 19 19 19 19 19 18 17 17 16 15 16 16 15 15 15 14 13 13 13 12 13 13 13 12 11 11 11 11 11 11 12 11
14 13 12 13 15 15 16 17 18 19 19 19 19 19 18 18 18 17 16 15 15 16 15 15 14 14 13 13 13 12 12 12 12 12 12 11 11 11 11 10 10 10 11 11
13 13 11 12 14 15 16 17 17 18 18 18 18 18 17 16 15 15 14 14 14 13 13 13 13 13 13 13 12 12 12 12 12 12 11 11 11 10 10 10 10 10 11 11
13 12 12 12 15 15 16 16 17 17 17 17 16 15 15 14 14 14 13 13 12 13 13 13 12 12 12 12 11 11 11 11 11 11 11 10 10 10 10 10 10 11 10 11

GFSCGP_850_temp_144.txt.gz
Temp
29 31 32 33 33 32 32 33 34 34 33 34 34 33 31 29 29 29 28 26 26 25 24 23 22 21 21 20 20 21 22 21 21 21 18 18 19 19 19 19 19 20 20 19
30 31 33 32 32 31 32 33 33 33 33 33 33 33 32 30 30 30 29 28 27 26 25 24 23 22 21 21 21 22 22 22 22 22 21 20 19 19 19 19 19 20 20 19
32 33 31 31 31 32 33 34 33 33 32 34 33 32 31 31 30 30 29 28 28 28 26 24 23 22 22 21 22 23 22 22 22 22 21 21 21 20 19 19 19 19 19 19
32 32 31 31 32 33 33 33 33 33 33 33 33 32 32 33 31 30 29 29 28 28 27 26 24 23 22 22 22 23 23 22 22 22 21 20 20 20 20 19 19 20 19 19
32 31 31 32 33 33 33 33 33 33 33 33 32 33 34 33 32 33 32 30 29 28 27 27 25 24 24 23 22 22 23 23 22 22 22 21 21 19 20 20 19 19 20 19
32 31 33 34 33 33 32 32 32 32 33 31 33 32 33 33 33 34 33 31 30 29 28 27 26 25 24 24 23 22 23 23 23 23 22 22 22 20 20 20 19 20 20 20
31 32 33 32 32 32 32 33 31 30 31 31 31 31 33 33 32 32 33 32 30 29 28 27 27 26 24 24 23 22 23 23 23 23 22 22 22 21 21 20 20 20 20 21
31 30 32 33 33 32 32 33 32 29 31 31 30 30 32 31 30 29 30 32 31 29 29 28 28 27 25 24 23 23 24 23 23 23 22 22 22 21 20 20 20 20 20 20
31 32 33 33 33 33 32 31 33 31 31 31 32 31 32 31 31 30 30 31 31 30 29 28 28 28 26 25 23 23 24 24 23 23 22 22 22 22 20 21 20 20 19 19
32 31 33 31 32 31 32 33 31 32 29 29 30 30 31 31 31 30 30 30 30 29 29 28 27 27 26 25 24 23 22 23 23 22 21 21 20 21 21 21 21 21 20 18
32 31 31 30 31 32 31 31 32 33 31 30 30 31 32 31 31 31 30 30 29 29 29 28 27 26 24 24 23 22 22 21 21 21 20 21 21 21 21 21 21 19 18 19
32 32 31 31 30 31 33 33 32 31 29 30 30 31 33 32 31 30 30 29 29 28 28 27 27 25 23 23 23 22 22 21 21 22 22 21 21 21 21 20 19 17 18 18
32 31 30 29 30 30 31 32 32 32 31 30 30 31 31 30 30 29 29 29 28 27 27 26 24 23 23 22 22 22 21 21 21 22 21 21 20 21 20 19 19 18 18 18
30 32 31 31 31 32 30 30 31 32 31 31 30 31 31 30 30 29 27 27 27 25 25 25 23 22 22 21 20 20 21 20 20 21 20 21 21 20 19 18 18 18 18 17
31 30 31 32 32 32 32 31 31 31 31 30 31 30 30 29 28 26 25 26 25 25 24 24 22 21 21 20 20 21 20 19 20 20 20 20 19 18 18 18 18 18 17 17
31 29 30 30 30 31 31 31 31 31 31 30 30 29 30 27 27 26 25 24 24 24 23 21 20 20 19 19 19 19 19 18 19 19 19 18 17 17 17 17 17 17 17 15
29 29 28 29 29 30 29 30 30 30 30 30 29 29 28 28 26 25 25 24 23 22 21 20 20 19 20 19 18 18 18 19 18 17 17 16 16 15 15 14 14 15 14 13
28 27 29 30 27 26 29 31 31 30 29 29 28 28 26 24 23 22 22 23 22 21 21 20 20 19 17 17 18 19 18 17 17 16 16 16 15 15 14 14 13 13 13 13
30 29 27 26 28 28 26 26 27 28 27 28 27 26 25 23 23 21 21 21 21 20 19 18 17 17 17 17 18 18 16 15 15 15 15 15 14 14 13 13 13 12 12 12
28 27 29 28 28 27 30 28 27 28 27 27 26 25 25 23 26 23 20 19 18 17 17 17 17 16 15 15 17 17 17 17 15 14 14 13 13 13 12 12 12 11 11 11
27 28 28 28 28 27 26 26 26 25 26 26 26 25 24 24 22 20 19 18 17 16 17 16 15 15 16 17 16 16 15 13 12 12 12 12 12 12 12 12 11 11 11 11
27 27 27 28 27 26 24 25 26 24 22 24 24 23 22 20 20 19 18 17 17 16 15 15 15 15 15 15 13 12 12 11 11 11 11 11 11 11 11 11 11 10 11 11
26 27 28 26 27 22 22 23 20 21 22 23 22 21 21 20 20 19 17 17 16 15 14 14 14 13 13 12 11 11 11 10 11 10 11 11 11 11 11 11 11 10 11 10
21 22 26 24 22 21 20 20 20 21 21 21 21 20 20 20 19 17 16 16 15 14 13 13 13 12 12 11 11 10 10 11 11 12 11 10 10 10 11 11 11 11 10 10
24 22 23 21 20 20 20 20 19 19 19 19 19 19 18 18 17 16 15 14 13 12 11 11 12 12 11 12 10 9 10 11 11 11 9 10 9 10 10 11 11 10 10 9
23 23 25 25 21 23 20 18 19 19 19 18 18 17 16 16 15 15 13 12 11 11 12 10 9 9 9 8 9 9 10 10 10 9 9 10 10 11 11 10 10 10 10 10

GFSCGP_850_temp_147.txt.gz
Temp
32 33 33 35 36 35 36 36 35 36 36 36 36 34 33 33 33 31 30 28 28 27 26 25 24 24 23 22 21 20 19 19 19 19 19 19 20 20 20 20 20 19 19 18
33 33 36 36 36 35 35 35 36 36 36 36 36 35 34 34 33 32 31 29 29 28 27 26 25 24 23 22 21 20 19 20 21 19 19 20 21 21 21 21 20 20 19 19
34 35 36 35 34 34 35 35 35 35 35 36 35 34 34 34 33 33 32 31 30 29 28 26 25 24 24 23 22 21 22 21 21 21 20 19 20 20 20 20 20 20 19 19
34 35 34 34 34 35 35 36 35 35 34 34 36 33 34 34 34 34 33 32 31 30 29 27 26 24 24 24 23 21 21 22 22 21 20 20 21 20 21 20 21 20 20 20
33 34 33 33 34 36 35 36 35 35 35 35 35 34 34 35 33 34 34 32 32 31 30 28 26 25 25 25 24 22 21 21 21 21 21 20 20 21 22 22 21 20 21 21
35 35 35 35 36 36 36 34 34 35 35 34 35 34 34 35 35 35 35 33 32 31 30 29 28 27 26 25 25 23 21 21 21 22 23 22 21 21 22 22 21 22 23 22
33 34 35 35 35 35 34 34 33 32 33 33 36 34 35 36 35 35 36 34 33 32 31 30 29 28 27 26 25 24 22 21 22 23 22 22 22 21 20 20 22 21 22 22
32 32 34 35 35 34 34 35 34 31 33 34 34 32 34 35 34 33 33 34 34 32 31 30 29 28 27 27 26 24 22 22 23 22 23 22 22 20 20 21 21 22 22 22
33 33 35 35 36 36 34 33 36 34 35 34 34 34 35 35 35 34 33 34 34 33 32 31 30 29 28 27 26 25 23 22 22 22 22 22 23 22 21 21 22 21 21 20
35 33 36 35 35 36 35 35 33 34 32 31 34 33 33 33 34 34 33 33 34 33 32 31 30 29 28 28 27 25 24 22 22 22 21 21 20 20 20 19 20 22 21 20
35 34 34 35 33 33 33 33 34 36 35 33 32 33 34 33 33 33 33 32 32 32 32 31 30 30 29 28 27 26 25 23 22 22 22 21 21 20 19 19 19 19 20 20
34 34 33 33 35 35 36 34 34 33 31 33 33 32 34 34 33 33 33 32 31 31 31 31 30 29 28 28 27 26 25 24 23 22 21 21 20 20 19 19 19 18 19 19
34 33 32 33 34 34 34 35 35 34 34 32 32 32 34 33 33 32 32 32 31 31 31 30 29 29 27 26 26 25 24 23 22 21 21 21 20 20 19 19 18 18 19 18
33 33 32 33 32 34 32 33 34 34 33 32 33 32 32 33 32 32 31 31 31 30 29 29 28 26 25 25 24 23 22 23 21 20 21 20 20 19 19 18 18 17 17 16
33 31 33 33 35 35 34 33 34 33 33 32 33 33 33 31 30 30 29 28 29 28 28 27 26 24 23 23 22 21 21 20 20 20 19 19 18 18 18 17 17 16 16 15
33 31 32 32 34 34 34 34 34 34 33 33 33 33 32 29 29 29 28 28 27 27 27 27 24 23 22 21 21 20 20 19 18 18 18 17 17 17 17 16 16 16 15 15
32 32 31 30 33 33 32 33 34 34 34 33 32 33 31 30 29 28 28 27 26 26 25 23 22 21 20 19 19 19 18 18 18 17 17 17 17 16 16 16 16 15 15 14
31 30 31 31 31 29 32 35 34 33 33 33 33 31 29 28 26 25 25 26 25 24 22 22 21 20 19 18 17 17 17 17 17 17 17 16 16 15 15 15 15 14 14 14
33 31 30 30 30 31 31 31 32 32 32 32 31 30 28 27 25 24 24 24 23 22 21 20 19 18 17 16 16 16 16 16 16 16 15 15 14 14 14 14 14 13 13 13
32 31 31 30 30 29 32 32 32 33 30 31 30 29 28 26 27 24 22 21 20 19 19 18 18 17 16 15 15 15 15 15 15 14 14 13 13 13 13 13 13 13 12 12
29 30 29 30 30 30 31 31 31 28 29 30 29 28 27 27 25 22 21 20 19 18 18 17 17 16 15 14 14 14 14 14 13 13 13 13 13 12 13 13 12 12 12 12
28 28 29 30 29 27 29 29 29 27 28 28 27 27 26 23 22 21 20 19 18 18 17 17 17 16 15 14 13 13 13 12 12 11 11 12 12 12 12 12 12 12 12 11
29 30 30 29 27 27 28 28 25 26 27 27 27 26 23 22 22 20 19 18 18 17 16 16 16 15 14 13 12 12 11 11 11 11 10 10 11 11 11 11 12 12 12 12
27 26 29 26 25 26 25 24 24 25 25 25 24 23 23 22 21 20 19 18 17 16 15 14 14 13 12 10 10 10 10 10 10 9 10 10 12 12 12 12 12 12 12 12
30 26 27 25 24 24 24 24 24 23 23 23 23 22 22 20 19 18 17 16 15 14 13 13 12 11 12 11 9 9 9 9 10 10 9 11 12 11 12 12 11 12 12 11
28 28 27 27 23 25 22 22 22 22 21 21 21 20 19 19 18 17 15 14 13 12 12 12 11 11 10 9 9 8 8 9 8 8 9 9 9 11 12 11 11 12 12 11